Time,TemperatureF,DewpointF,PressureIn,WindDirection,WindDirectionDegrees,WindSpeedMPH,WindSpeedGustMPH,Humidity,HourlyPrecipIn,Conditions,Clouds,dailyrainin,SoftwareType,DateUTC
2013-07-25 00:00:00,79.2,48.4,29.85,SE,130,1.0,5.0,34,0.00,,---,0.00,VWS V13.01,2013-07-25 07:00:00,
2013-07-25 00:30:00,78.2,47.6,29.85,SE,131,2.0,3.0,35,0.00,,---,0.00,VWS V13.01,2013-07-25 07:30:00,
2013-07-25 01:00:00,79.8,48.2,29.85,SW,232,0.0,12.0,33,0.00,,---,0.00,VWS V13.01,2013-07-25 08:00:00,
2013-07-25 01:30:00,79.2,47.7,29.85,SSW,205,0.0,6.0,33,0.00,,---,0.00,VWS V13.01,2013-07-25 08:30:00,
2013-07-25 02:01:00,78.6,47.9,29.86,South,184,0.0,5.0,35,0.00,,---,0.00,VWS V13.01,2013-07-25 09:01:00,
2013-07-25 02:30:00,78.6,47.1,29.84,South,171,2.0,5.0,33,0.00,,---,0.00,VWS V13.01,2013-07-25 09:30:00,
2013-07-25 02:59:00,77.2,48.2,29.86,South,170,0.0,4.0,36,0.00,,---,0.00,VWS V13.01,2013-07-25 09:59:00,
2013-07-25 03:30:00,75.1,48.5,29.86,South,173,0.0,3.0,39,0.00,,---,0.00,VWS V13.01,2013-07-25 10:30:00,
2013-07-25 03:59:00,74.1,48.3,29.85,South,172,0.0,3.0,40,0.00,,---,0.00,VWS V13.01,2013-07-25 10:59:00,
2013-07-25 04:30:00,72.7,48.9,29.85,South,173,0.0,3.0,43,0.00,,---,0.00,VWS V13.01,2013-07-25 11:30:00,
2013-07-25 05:00:00,72.4,50.5,29.84,South,172,0.0,3.0,46,0.00,,---,0.00,VWS V13.01,2013-07-25 12:00:00,
2013-07-25 05:30:00,70.9,46.7,29.86,South,172,1.0,3.0,42,0.00,,---,0.00,VWS V13.01,2013-07-25 12:30:00,
2013-07-25 06:00:00,70.1,46.0,29.86,South,173,0.0,2.0,42,0.00,,---,0.00,VWS V13.01,2013-07-25 13:00:00,
2013-07-25 06:30:00,70.2,47.3,29.87,South,188,1.0,4.0,44,0.00,,---,0.00,VWS V13.01,2013-07-25 13:30:00,
2013-07-25 07:00:00,74.4,50.5,29.89,South,188,3.0,3.0,43,0.00,,---,0.00,VWS V13.01,2013-07-25 14:00:00,
2013-07-25 07:30:00,77.7,52.2,29.90,SSW,204,5.0,6.0,41,0.00,,---,0.00,VWS V13.01,2013-07-25 14:30:00,
2013-07-25 08:00:00,79.9,51.3,29.89,South,185,0.0,6.0,37,0.00,,---,0.00,VWS V13.01,2013-07-25 15:00:00,
2013-07-25 08:30:00,82.8,50.8,29.90,South,187,0.0,0.0,33,0.00,,---,0.00,VWS V13.01,2013-07-25 15:30:00,
2013-07-25 09:00:00,86.7,50.7,29.90,SSE,155,0.0,0.0,29,0.00,,---,0.00,VWS V13.01,2013-07-25 16:00:00,
2013-07-25 09:30:00,89.6,51.2,29.89,SSE,158,0.0,0.0,27,0.00,,---,0.00,VWS V13.01,2013-07-25 16:30:00,
2013-07-25 10:00:00,91.8,52.1,29.90,SSE,158,0.0,0.0,26,0.00,,---,0.00,VWS V13.01,2013-07-25 17:00:00,
2013-07-25 10:30:00,93.8,50.4,29.89,SE,128,0.0,8.0,23,0.00,,---,0.00,VWS V13.01,2013-07-25 17:30:00,
2013-07-25 11:00:00,94.6,51.1,29.89,SW,229,1.0,8.0,23,0.00,,---,0.00,VWS V13.01,2013-07-25 18:00:00,
2013-07-25 11:30:00,96.5,50.2,29.89,SSE,159,5.0,10.0,21,0.00,,---,0.00,VWS V13.01,2013-07-25 18:30:00,
2013-07-25 12:00:00,98.9,49.5,29.89,SE,141,4.0,11.0,19,0.00,,---,0.00,VWS V13.01,2013-07-25 19:00:00,
2013-07-25 12:30:00,99.4,46.9,29.88,SSW,200,3.0,12.0,17,0.00,,---,0.00,VWS V13.01,2013-07-25 19:30:00,
2013-07-25 13:00:00,100.4,50.7,29.87,SSW,200,1.0,12.0,19,0.00,,---,0.00,VWS V13.01,2013-07-25 20:00:00,
2013-07-25 13:30:00,100.9,51.1,29.88,South,183,4.0,19.0,19,0.00,,---,0.00,VWS V13.01,2013-07-25 20:30:00,
2013-07-25 14:00:00,101.7,51.8,29.87,SSW,203,12.0,17.0,19,0.00,,---,0.00,VWS V13.01,2013-07-25 21:00:00,
2013-07-25 14:30:00,101.7,51.8,29.86,South,175,10.0,20.0,19,0.00,,---,0.00,VWS V13.01,2013-07-25 21:30:00,
2013-07-25 15:00:00,101.9,51.9,29.86,SW,228,14.0,20.0,19,0.00,,---,0.00,VWS V13.01,2013-07-25 22:00:00,
2013-07-25 15:30:00,101.2,51.4,29.87,South,180,7.0,21.0,19,0.00,,---,0.00,VWS V13.01,2013-07-25 22:30:00,
2013-07-25 16:00:00,101.7,51.8,29.84,SSW,206,14.0,24.0,19,0.00,,---,0.00,VWS V13.01,2013-07-25 23:00:00,
2013-07-25 16:30:00,100.1,50.5,29.85,South,181,11.0,27.0,19,0.00,,---,0.00,VWS V13.01,2013-07-25 23:30:00,
2013-07-25 17:00:00,99.8,50.2,29.85,SE,127,6.0,21.0,19,0.00,,---,0.00,VWS V13.01,2013-07-26 00:00:00,
2013-07-25 17:30:00,98.9,49.5,29.84,West,262,11.0,23.0,19,0.00,,---,0.00,VWS V13.01,2013-07-26 00:30:00,
2013-07-25 18:00:00,98.4,49.1,29.84,West,265,0.0,20.0,19,0.00,,---,0.00,VWS V13.01,2013-07-26 01:00:00,
2013-07-25 18:30:00,97.9,48.7,29.86,WSW,252,0.0,0.0,19,0.00,,---,0.00,VWS V13.01,2013-07-26 01:30:00,
2013-07-25 19:00:00,96.4,47.5,29.86,SSW,206,0.0,0.0,19,0.00,,---,0.00,VWS V13.01,2013-07-26 02:00:00,
2013-07-25 19:30:00,95.1,49.1,29.87,SW,233,0.0,0.0,21,0.00,,---,0.00,VWS V13.01,2013-07-26 02:30:00,
2013-07-25 20:01:00,91.1,51.5,29.87,West,260,0.0,0.0,26,0.00,,---,0.00,VWS V13.01,2013-07-26 03:01:00,
2013-07-25 20:30:00,89.9,50.5,29.89,West,273,0.0,0.0,26,0.00,,---,0.00,VWS V13.01,2013-07-26 03:30:00,
2013-07-25 21:00:00,88.7,50.5,29.89,NW,308,0.0,0.0,27,0.00,,---,0.00,VWS V13.01,2013-07-26 04:00:00,
2013-07-25 21:30:00,88.4,49.2,29.91,South,190,0.0,0.0,26,0.00,,---,0.00,VWS V13.01,2013-07-26 04:30:00,
2013-07-25 22:00:00,87.5,48.4,29.91,South,184,0.0,0.0,26,0.00,,---,0.00,VWS V13.01,2013-07-26 05:00:00,
2013-07-25 22:30:00,85.1,47.4,29.93,SSE,160,0.0,0.0,27,0.00,,---,0.00,VWS V13.01,2013-07-26 05:30:00,
2013-07-25 23:00:00,84.3,46.7,29.93,SE,145,0.0,0.0,27,0.00,,---,0.00,VWS V13.01,2013-07-26 06:00:00,
2013-07-25 23:30:00,83.9,46.4,29.92,SE,146,0.0,0.0,27,0.00,,---,0.00,VWS V13.01,2013-07-26 06:30:00,